When you browse on this site, cookies collect data to enhance your experience and personalize the content and advertising you see.
Visit our Privacy Policy to learn more. By continuing to use the site, you agree to this use of cookies and data.
  • In Hungary
  • List of Countries
  • For 7 days
  • Water Temperature
  • Weather Map
  • News
  • Weather Widgets
  • user-avatar
    Login

    Hourly Weather Elmwood Park

    Today, 21 November, Thursday

    Time Temperature Precipitation Wind Pressure Humidity
    00:00 +5°C° 0 mm 5 mps 744 mmHg 77%
    01:00 +5°C° 0.1 mm 5 mps 744 mmHg 77%
    02:00 +4°C° 0.1 mm 6 mps 743 mmHg 77%
    03:00 +5°C° 0.1 mm 6 mps 742 mmHg 76%
    04:00 +5°C° 1.4 mm 7 mps 742 mmHg 79%
    05:00 +5°C° 1.4 mm 7 mps 741 mmHg 81%
    06:00 +6°C° 1.4 mm 8 mps 740 mmHg 84%
    07:00 +6°C° 0.4 mm 8 mps 739 mmHg 86%
    08:00 +7°C° 0.4 mm 8 mps 738 mmHg 88%
    09:00 +9°C° 0.4 mm 8 mps 737 mmHg 90%
    10:00 +10°C° 0.5 mm 8 mps 736 mmHg 90%
    11:00 +10°C° 0.5 mm 8 mps 736 mmHg 90%
    12:00 +11°C° 0.5 mm 9 mps 735 mmHg 89%
    13:00 +11°C° 0.1 mm 8 mps 736 mmHg 85%
    14:00 +10°C° 0.1 mm 8 mps 736 mmHg 81%
    15:00 +10°C° 0.1 mm 7 mps 737 mmHg 77%
    16:00 +9°C° 0 mm 7 mps 738 mmHg 77%
    17:00 +8°C° 0 mm 6 mps 739 mmHg 76%
    18:00 +7°C° 0 mm 5 mps 740 mmHg 76%
    19:00 +6°C° 0 mm 5 mps 741 mmHg 74%
    20:00 +5°C° 0 mm 5 mps 742 mmHg 73%
    21:00 +3°C° 0 mm 6 mps 742 mmHg 72%
    22:00 +3°C° 0 mm 5 mps 743 mmHg 70%
    23:00 +2°C° 0 mm 5 mps 743 mmHg 68%

    Tomorrow, 22 November, Friday

    Time Temperature Precipitation Wind Pressure Humidity
    00:00 +2°C° 0 mm 5 mps 744 mmHg 66%
    01:00 +1°C° 0 mm 5 mps 744 mmHg 68%
    02:00 0°C° 0 mm 5 mps 745 mmHg 69%
    03:00 -1°C° 0 mm 5 mps 745 mmHg 71%
    04:00 -1°C° 0 mm 4 mps 746 mmHg 69%
    05:00 -2°C° 0 mm 4 mps 746 mmHg 68%
    06:00 -2°C° 0 mm 3 mps 746 mmHg 67%
    07:00 -2°C° 0 mm 3 mps 747 mmHg 65%
    08:00 -1°C° 0 mm 3 mps 747 mmHg 64%
    09:00 -1°C° 0 mm 3 mps 748 mmHg 62%
    10:00 +1°C° 0 mm 2 mps 748 mmHg 56%
    11:00 +2°C° 0 mm 2 mps 748 mmHg 50%
    12:00 +3°C° 0 mm 2 mps 748 mmHg 45%
    13:00 +4°C° 0 mm 1 mps 747 mmHg 43%
    14:00 +5°C° 0 mm 1 mps 747 mmHg 41%
    15:00 +5°C° 0 mm 1 mps 746 mmHg 40%
    16:00 +4°C° 0 mm 1 mps 746 mmHg 44%
    17:00 +4°C° 0 mm 1 mps 746 mmHg 47%
    18:00 +3°C° 0 mm 1 mps 746 mmHg 51%
    19:00 +3°C° 0 mm 1 mps 746 mmHg 53%
    20:00 +3°C° 0 mm 1 mps 746 mmHg 55%
    21:00 +2°C° 0 mm 1 mps 746 mmHg 56%
    22:00 +2°C° 0 mm 1 mps 745 mmHg 57%
    23:00 +2°C° 0 mm 1 mps 745 mmHg 58%

    Day after tomorrow, 23 November, Saturday

    Time Temperature Precipitation Wind Pressure Humidity
    00:00 +2°C° 0 mm 1 mps 744 mmHg 58%
    01:00 +2°C° 0 mm 1 mps 743 mmHg 59%
    02:00 +1°C° 0 mm 1 mps 743 mmHg 60%
    03:00 +1°C° 0 mm 1 mps 742 mmHg 61%
    04:00 +1°C° 0 mm 1 mps 742 mmHg 60%
    05:00 0°C° 0 mm 0 mps 741 mmHg 60%
    06:00 +1°C° 0 mm 0 mps 740 mmHg 60%
    07:00 +1°C° 0 mm 0 mps 740 mmHg 59%
    08:00 +2°C° 0 mm 1 mps 740 mmHg 59%
    09:00 +3°C° 0 mm 1 mps 739 mmHg 59%
    10:00 +3°C° 0.3 mm 1 mps 738 mmHg 67%
    11:00 +2°C° 0.3 mm 1 mps 738 mmHg 75%
    12:00 +2°C° 0.3 mm 1 mps 737 mmHg 83%
    13:00 +1°C° 0.3 mm 2 mps 736 mmHg 83%
    14:00 +1°C° 0.3 mm 2 mps 736 mmHg 82%
    15:00 +1°C° 0.3 mm 2 mps 736 mmHg 82%
    16:00 +1°C° 0.1 mm 2 mps 736 mmHg 80%
    17:00 +1°C° 0.1 mm 2 mps 736 mmHg 78%
    18:00 +1°C° 0.1 mm 2 mps 736 mmHg 76%
    19:00 0°C° 0.1 mm 3 mps 736 mmHg 82%
    20:00 0°C° 0.1 mm 3 mps 736 mmHg 89%
    21:00 0°C° 0.1 mm 3 mps 736 mmHg 95%
    22:00 0°C° 0.1 mm 3 mps 735 mmHg 94%
    23:00 -2°C° 0.1 mm 4 mps 735 mmHg 92%

    24 November, Sunday

    Time Temperature Precipitation Wind Pressure Humidity
    00:00 -2°C° 0.1 mm 4 mps 735 mmHg 91%
    01:00 -1°C° 0 mm 4 mps 735 mmHg 91%
    02:00 -1°C° 0 mm 4 mps 734 mmHg 91%
    03:00 0°C° 0 mm 3 mps 734 mmHg 91%
    04:00 -1°C° 0 mm 4 mps 735 mmHg 91%
    05:00 -1°C° 0 mm 4 mps 735 mmHg 91%
    06:00 -1°C° 0 mm 4 mps 735 mmHg 92%
    07:00 -1°C° 0 mm 4 mps 736 mmHg 85%
    08:00 -1°C° 0 mm 4 mps 736 mmHg 78%
    09:00 -1°C° 0 mm 4 mps 737 mmHg 71%
    10:00 0°C° 0 mm 4 mps 737 mmHg 67%
    11:00 0°C° 0 mm 4 mps 737 mmHg 64%
    12:00 +1°C° 0 mm 4 mps 737 mmHg 60%
    13:00 +1°C° 0 mm 4 mps 737 mmHg 64%
    14:00 +1°C° 0 mm 4 mps 737 mmHg 68%
    15:00 +3°C° 0 mm 4 mps 737 mmHg 71%
    16:00 +2°C° 0 mm 3 mps 737 mmHg 75%
    17:00 +2°C° 0 mm 3 mps 737 mmHg 78%
    18:00 +2°C° 0 mm 3 mps 737 mmHg 82%
    19:00 +1°C° 0 mm 3 mps 737 mmHg 82%
    20:00 +1°C° 0 mm 3 mps 737 mmHg 83%
    21:00 +2°C° 0 mm 2 mps 737 mmHg 84%
    22:00 +1°C° 0 mm 3 mps 736 mmHg 85%
    23:00 +1°C° 0 mm 3 mps 736 mmHg 86%

    25 November, Monday

    Time Temperature Precipitation Wind Pressure Humidity
    00:00 +2°C° 0 mm 3 mps 735 mmHg 86%
    01:00 +1°C° 0 mm 4 mps 735 mmHg 87%
    02:00 +1°C° 0 mm 4 mps 734 mmHg 87%
    03:00 +1°C° 0 mm 4 mps 734 mmHg 87%
    04:00 +1°C° 0 mm 5 mps 734 mmHg 86%
    05:00 +1°C° 0 mm 5 mps 734 mmHg 85%
    06:00 +1°C° 0 mm 5 mps 733 mmHg 84%
    07:00 +2°C° 0 mm 5 mps 733 mmHg 83%
    08:00 +2°C° 0 mm 5 mps 733 mmHg 81%
    09:00 +2°C° 0 mm 5 mps 734 mmHg 79%
    10:00 +3°C° 0 mm 5 mps 733 mmHg 76%
    11:00 +5°C° 0 mm 5 mps 733 mmHg 73%
    12:00 +6°C° 0 mm 4 mps 733 mmHg 71%
    13:00 +7°C° 0 mm 4 mps 733 mmHg 71%
    14:00 +7°C° 0 mm 4 mps 733 mmHg 71%
    15:00 +7°C° 0 mm 4 mps 733 mmHg 71%
    16:00 +7°C° 0 mm 4 mps 733 mmHg 73%
    17:00 +6°C° 0 mm 4 mps 733 mmHg 75%
    18:00 +7°C° 0 mm 3 mps 734 mmHg 77%
    19:00 +7°C° 0 mm 3 mps 734 mmHg 78%
    20:00 +5°C° 0 mm 3 mps 734 mmHg 80%
    21:00 +5°C° 0 mm 3 mps 734 mmHg 81%
    22:00 +5°C° 0 mm 3 mps 734 mmHg 82%
    23:00 +5°C° 0 mm 3 mps 734 mmHg 83%

    26 November, Tuesday

    Time Temperature Precipitation Wind Pressure Humidity
    00:00 +5°C° 0 mm 3 mps 734 mmHg 84%
    01:00 +5°C° 0 mm 3 mps 734 mmHg 85%
    02:00 +5°C° 0 mm 3 mps 734 mmHg 86%
    03:00 +6°C° 0 mm 2 mps 734 mmHg 88%
    04:00 +5°C° 0 mm 3 mps 734 mmHg 88%
    05:00 +5°C° 0 mm 3 mps 733 mmHg 88%
    06:00 +5°C° 0 mm 3 mps 733 mmHg 88%
    07:00 +5°C° 0.3 mm 3 mps 733 mmHg 89%
    08:00 +5°C° 0.3 mm 4 mps 733 mmHg 90%
    09:00 +5°C° 0.3 mm 4 mps 733 mmHg 91%
    10:00 +6°C° 0.9 mm 4 mps 732 mmHg 91%
    11:00 +6°C° 0.9 mm 4 mps 731 mmHg 91%
    12:00 +7°C° 0.9 mm 4 mps 730 mmHg 91%
    13:00 +7°C° 0.6 mm 5 mps 729 mmHg 91%
    14:00 +8°C° 0.6 mm 6 mps 728 mmHg 91%
    15:00 +9°C° 0.6 mm 7 mps 727 mmHg 91%
    16:00 +9°C° 1.9 mm 7 mps 726 mmHg 91%
    17:00 +9°C° 1.9 mm 7 mps 725 mmHg 92%
    18:00 +10°C° 1.9 mm 7 mps 724 mmHg 92%
    19:00 +9°C° 1.1 mm 8 mps 725 mmHg 87%
    20:00 +7°C° 1.1 mm 8 mps 725 mmHg 82%
    21:00 +6°C° 1.1 mm 9 mps 726 mmHg 77%
    22:00 +3°C° 0 mm 9 mps 728 mmHg 77%
    23:00 +1°C° 0 mm 9 mps 730 mmHg 77%
    Show more